Погода в Николаевке

Россия / Курганская область     55°34′02″N   62°45′33″E
темп.,
°C
ветер,
м/с
пор.,
м/с
влажн.,
%
обл.,
%
осадки,
мм/ч
давл.,
гПа
погр.,
м
20 мая, пт
пт2023:00+8юз357082 0.0 100579
02:00+7юз31075100 0.1 1004395
05:00+8зюз712795 0.4 1004757
08:00+7з7107595 0.0 10061200
11:00+9з896299 0.1 10091524
14:00+12з784721 0.1 10091987
17:00+13з6940100 0.1 10092326
20:00+10зсз3458100 0.0 100880
21 мая, сб
сб2123:00+8в2259100 0.0 100722
02:00+7ю4787100 0.5 1005283
05:00+5в5893100 6.6 1002739
08:00+4св81495100 7.2 999705
11:00+5св81394100 7.5 997694
14:00+5св71195100 0.1 995470
17:00+5св71097100 5.1 992285
20:00+5ссв4798100 3.3 991286
22 мая, вс
вс2223:00+5ссв5898100 3.4 989320
02:00+5зсз2499100 0.6 988291
05:00+3зсз6997100 1.2 989470
08:00+2з5899100 0.1 991409
11:00+3з5997100 0.3 993700
14:00+5з71092100 0.6 996903
17:00+8з5867100 1.0 9981358
20:00+6юз488154 0.4 999304
23 мая, пн
пн2323:00+3юз49905 0.4 1000189
02:00+2ююз48925 0.0 1001147
05:00+2ю4109296 0.0 1001216
08:00+6ююз6983100 0.0 1001615
11:00+9ююз577196 0.2 10001331
14:00+9ю6681100 0.4 1000924
17:00+8ююз458480 0.6 1001650
20:00+8ююз368458 0.1 1002316
24 мая, вт
вт2423:00+7ююз5989100 0.1 1004235
02:00+4ююз48965 0.0 1006163
05:00+4ююз36955 0.0 1008126
08:00+9ююз468151 0.0 1009413
11:00+13ююз466869 0.3 10091265
14:00+15ю466085 0.4 10091674
17:00+14ю6769100 0.6 1010885
20:00+10ю4893100 0.4 1011272